RH
6 8 10 12 13 14 14 14 15 15 16 16 16 17 17 17 18 19 20 20 19 19 18 18 17 16 14 14 20 20 19 22 17 11 12 17 20 21 20 18 13 10 8 8 13 16 15 13 13 12 9 11 13 15 18 16 15 17 23 27 27 28 27 23 22 23 23 21 20 20 23 26 28 25 24 32 38 40 39 34 31 30 30 34 36 37 38 39
6 9 12 14 15 16 17 17 18 18 18 17 15 16 17 18 20 20 21 20 20 20 18 17 17 18 16 12 15 18 19 21 18 15 18 19 19 18 19 17 14 11 9 10 13 15 15 13 11 10 7 8 12 13 15 15 15 17 21 24 26 27 25 20 19 19 20 21 21 21 25 25 27 26 22 32 41 40 40 36 31 28 27 29 31 32 33 34
8 12 14 16 18 19 19 20 21 21 20 18 15 15 18 20 21 21 21 20 19 19 17 15 15 16 17 13 13 17 20 22 20 22 23 19 17 18 19 18 16 15 13 12 13 15 17 14 13 12 8 7 10 11 12 16 17 16 18 25 26 22 20 18 18 20 21 21 18 21 27 27 28 28 26 35 43 41 41 38 32 29 27 27 29 30 30 32
11 15 16 18 20 21 21 22 21 20 20 19 15 16 19 20 20 21 19 18 17 18 16 14 13 12 13 13 13 14 19 23 22 23 23 18 17 19 19 19 17 17 17 16 15 16 16 15 14 12 10 11 10 10 13 16 18 17 21 27 23 17 18 18 20 21 21 22 19 20 27 29 30 30 31 35 43 46 40 36 33 29 27 27 28 30 30 31
15 17 19 21 22 22 22 22 20 20 20 20 18 18 19 19 20 20 17 16 16 17 16 14 13 12 12 13 14 17 21 24 24 22 20 18 19 19 20 20 19 20 20 20 18 17 18 16 14 12 13 15 13 15 16 15 17 22 23 22 19 16 17 18 21 23 22 23 22 23 27 29 29 31 34 36 44 48 39 34 33 30 29 28 28 30 31 31
18 19 21 22 22 22 22 22 20 20 20 20 19 19 18 19 20 18 15 16 16 16 16 16 16 17 18 18 20 25 25 25 24 22 20 19 20 19 21 21 20 22 22 21 19 18 17 15 14 14 15 16 17 19 18 15 18 26 24 18 18 17 16 18 21 24 24 24 25 26 27 28 30 32 35 38 43 42 36 33 33 31 30 30 29 29 31 31
19 21 23 22 23 22 22 22 21 20 20 20 18 18 18 20 21 17 15 16 17 16 16 15 16 17 19 22 25 23 20 23 23 21 20 20 20 19 20 20 20 22 20 18 18 16 16 15 15 15 17 19 20 20 18 17 19 27 27 17 17 17 16 19 22 24 25 25 26 28 27 26 30 33 33 34 39 38 35 32 30 31 30 29 30 29 30 30
21 23 23 23 23 22 22 22 21 19 19 19 17 18 19 21 22 18 15 15 18 17 16 16 15 17 16 23 31 22 16 22 22 21 20 19 19 19 20 19 21 22 16 14 15 16 16 14 16 18 21 20 20 22 22 23 24 26 25 17 16 16 16 20 22 23 23 24 26 26 25 25 28 30 29 29 31 32 31 29 27 28 28 29 30 29 30 30
22 23 23 23 23 23 23 21 20 19 18 18 17 18 18 21 23 19 16 15 17 17 16 16 15 17 16 21 27 20 17 21 21 22 21 20 18 18 20 19 22 22 15 12 12 15 16 13 17 20 20 18 21 26 26 31 34 27 21 14 14 14 16 20 19 20 21 22 24 24 24 25 26 27 28 28 26 27 27 26 25 24 26 28 29 29 29 30
23 24 23 23 23 23 23 21 20 18 17 18 17 18 20 22 21 17 14 12 13 14 14 15 13 13 14 18 20 17 18 21 21 22 21 22 20 18 20 18 20 23 17 10 9 14 20 19 18 18 20 19 23 27 29 37 37 25 18 13 13 13 14 17 16 18 19 19 20 21 25 25 24 29 32 29 26 26 25 24 24 24 25 27 28 29 29 30
23 23 23 23 23 23 22 21 20 18 17 17 16 20 22 23 19 14 12 12 13 12 12 15 18 17 11 11 16 17 18 20 20 20 20 23 21 20 19 14 15 22 21 13 10 14 22 25 19 20 25 22 22 26 29 35 33 24 19 18 18 14 12 13 13 17 19 20 19 17 23 24 26 32 32 28 26 25 24 24 24 24 25 25 27 28 28 30
23 23 23 23 23 22 22 21 19 18 16 16 18 21 23 22 18 15 14 14 14 13 14 15 20 23 15 12 17 19 18 20 20 19 21 23 21 20 17 12 11 17 18 13 12 14 21 25 21 24 29 27 27 29 28 30 30 22 20 26 26 18 15 13 11 15 16 20 21 19 28 31 31 31 28 27 26 25 24 24 24 24 25 25 25 27 29 30
23 23 23 23 23 22 22 20 18 17 16 17 20 22 22 20 17 16 15 15 13 12 14 16 19 18 14 15 17 18 17 19 20 20 21 21 21 21 16 12 10 11 11 8 12 15 18 21 21 21 23 29 33 30 26 25 28 26 24 30 30 25 24 16 12 15 14 19 21 26 41 39 30 28 27 28 26 24 24 23 24 24 24 25 25 26 28 30
23 23 23 23 22 22 21 20 18 17 17 18 20 20 19 17 15 14 13 13 12 12 14 18 24 21 15 16 16 15 16 17 19 19 19 20 23 24 20 16 10 9 8 6 9 14 18 19 22 21 20 25 26 23 27 25 25 28 28 31 28 27 25 16 17 17 15 19 16 25 44 38 27 28 27 28 26 24 23 22 24 23 24 25 24 25 27 29
23 22 22 22 21 21 20 19 18 18 18 18 18 18 16 15 12 10 11 12 11 12 14 17 23 20 15 14 14 15 15 15 17 17 17 18 22 24 21 16 10 8 8 8 8 12 18 18 20 24 23 23 19 23 33 30 23 24 29 32 26 24 23 17 20 20 19 22 14 22 41 34 26 28 27 28 26 23 22 22 23 23 24 24 24 25 26 28
23 23 22 21 20 19 17 16 16 16 17 17 17 17 16 14 11 10 12 13 12 11 12 15 16 15 15 14 12 13 14 14 15 17 16 14 17 20 18 15 13 12 11 11 12 14 17 18 20 20 18 21 23 27 32 31 25 22 29 32 23 23 26 22 24 27 26 26 19 22 33 30 25 27 26 28 26 24 23 22 23 23 24 24 24 26 26 28
24 24 22 20 18 15 13 13 13 13 14 14 16 16 16 16 13 14 13 12 14 13 13 15 14 12 13 12 11 12 13 13 12 14 15 12 13 16 16 15 15 17 17 14 15 16 16 18 20 18 16 21 26 28 29 33 35 33 34 29 21 27 33 28 26 31 34 31 26 22 23 24 25 27 26 27 26 24 23 22 23 24 24 26 26 26 27 28
24 23 21 18 15 14 13 13 13 12 11 11 12 13 13 15 14 12 10 9 11 14 15 16 17 19 15 12 14 13 11 12 10 11 13 11 11 14 14 13 15 18 18 15 13 14 15 14 14 18 22 25 30 39 38 38 44 47 44 37 36 39 37 28 21 30 38 34 31 26 20 21 25 27 26 26 26 23 23 23 23 24 24 26 27 27 29 29
22 21 19 15 14 16 15 15 14 12 12 13 13 14 13 10 8 8 7 6 10 18 22 19 18 21 18 14 13 11 11 13 10 9 11 10 10 12 12 14 16 15 16 18 15 13 16 20 23 29 37 34 33 43 45 42 46 51 48 48 51 44 32 24 16 27 40 37 32 27 20 18 23 28 26 25 26 24 23 23 23 24 24 26 27 30 30 30
20 20 17 15 15 17 16 14 13 11 12 14 17 25 26 16 11 13 10 8 14 21 23 19 16 15 14 13 12 11 12 13 10 8 11 12 12 13 14 18 18 15 21 28 22 14 18 31 40 41 42 37 32 38 43 42 45 49 54 54 45 32 24 18 15 25 38 40 34 26 24 21 19 26 27 25 26 23 23 23 24 24 24 27 29 31 32 31
19 19 17 15 16 17 15 13 12 10 9 10 14 23 27 22 19 20 17 16 18 18 16 15 15 14 13 13 13 14 12 12 11 8 10 12 14 16 17 19 20 19 23 27 22 14 18 32 41 38 34 35 36 41 40 34 36 46 57 52 32 23 22 16 19 30 35 40 40 31 32 30 20 22 26 26 26 24 23 22 23 25 26 28 29 31 32 32
19 18 17 16 16 15 14 13 11 10 9 8 8 10 14 15 16 18 20 20 19 17 15 13 12 13 15 14 14 15 14 14 13 10 10 11 14 19 22 20 22 24 22 22 22 19 24 31 33 30 32 37 37 39 35 27 30 42 50 43 28 23 24 20 23 28 27 33 36 29 30 29 22 22 26 26 25 23 23 22 24 27 28 30 31 32 33 33
19 18 17 16 16 15 14 14 12 12 12 10 8 7 10 12 13 17 21 21 22 19 14 13 12 12 14 14 14 16 16 16 16 15 12 11 15 20 25 27 28 28 25 24 23 23 26 27 26 29 38 44 38 33 34 29 30 38 40 35 29 25 28 29 26 24 26 30 30 29 34 34 28 26 27 26 25 23 26 28 30 32 31 32 34 32 33 35
18 17 17 16 15 15 14 13 13 13 12 12 11 9 10 12 16 21 23 20 23 22 16 16 14 12 14 15 17 20 20 17 17 17 14 14 19 20 26 34 34 34 36 35 28 29 33 24 24 37 43 41 34 32 40 38 32 35 38 35 30 25 27 31 27 26 28 30 37 42 41 35 31 34 33 28 27 28 31 33 33 33 32 33 34 33 35 35
17 17 17 16 15 15 15 14 13 12 12 12 13 13 10 10 13 17 23 23 21 20 19 18 15 12 14 15 17 20 20 19 18 19 17 15 21 27 31 31 30 37 46 44 31 30 36 28 29 41 36 28 28 32 41 41 34 34 37 33 26 24 29 31 30 34 34 31 39 47 44 37 29 29 34 33 33 33 32 33 32 32 32 33 34 32 32 30
17 16 16 16 16 17 19 18 14 14 17 12 13 19 14 12 13 14 25 32 24 20 21 20 17 15 16 15 14 17 21 22 18 18 19 17 19 29 35 29 28 39 47 45 32 27 32 30 33 36 28 24 25 26 32 37 40 40 36 31 27 30 36 38 37 41 44 35 30 35 42 41 24 17 30 38 38 36 34 33 32 32 33 32 30 28 27 25
16 15 16 15 15 17 19 19 15 14 18 14 13 19 18 18 17 16 29 34 24 21 21 19 17 15 19 19 14 15 22 23 18 17 20 20 18 23 35 35 33 35 39 42 36 30 35 35 40 39 26 23 22 20 26 33 39 37 32 32 31 35 40 41 44 46 44 36 30 30 29 28 19 17 33 43 40 39 37 36 35 34 32 28 26 26 25 24
15 15 16 15 15 15 15 16 14 13 15 13 12 16 18 20 17 22 34 29 18 19 21 21 18 13 18 22 17 17 22 23 22 21 20 23 19 19 32 38 37 34 36 45 37 32 41 42 51 55 32 20 22 22 27 35 40 35 33 35 33 39 39 35 43 47 40 39 41 32 19 22 23 16 27 42 43 41 40 41 40 35 30 27 27 26 24 24
15 15 14 15 15 14 15 15 14 14 14 12 13 15 15 15 19 32 34 21 18 25 23 20 16 15 20 21 20 22 23 24 26 24 21 22 19 18 25 31 38 38 35 39 31 31 44 39 46 56 34 20 26 26 28 38 42 35 35 38 34 36 30 28 44 48 41 46 47 30 15 24 30 17 23 44 50 49 46 44 41 34 29 28 27 26 24 24
16 16 15 15 15 14 14 13 11 14 13 11 13 13 13 19 27 34 27 21 29 33 26 24 22 23 27 27 25 24 25 25 25 26 23 21 20 21 23 22 31 40 36 34 33 37 46 39 43 48 32 28 30 25 28 36 40 40 38 35 29 26 21 24 36 38 39 45 37 22 16 27 35 27 35 53 56 58 56 48 39 31 27 26 25 25 25 24
15 15 14 13 13 12 11 12 13 13 11 12 13 12 20 30 32 29 24 25 35 34 27 31 33 32 34 36 32 28 30 26 22 30 32 27 26 27 28 29 36 40 33 31 37 43 45 42 45 41 30 33 31 22 24 29 36 40 33 28 27 25 21 22 25 27 36 39 26 18 19 29 35 35 47 58 55 55 55 48 39 31 24 22 23 25 25 24
12 11 11 10 10 9 9 12 13 11 10 13 11 14 28 33 27 28 27 28 37 38 33 36 39 39 42 39 33 33 37 29 23 32 37 36 40 41 39 45 50 44 33 33 37 37 38 38 41 39 30 30 28 22 21 22 27 27 22 29 38 35 32 33 33 33 37 34 24 20 24 31 30 32 46 52 49 48 43 37 33 28 22 21 24 26 24 23
9 9 10 10 10 8 9 10 10 11 12 12 11 20 33 28 24 32 30 26 36 39 39 45 44 45 45 35 30 34 36 32 28 30 32 33 42 47 43 47 54 49 41 40 33 27 33 36 36 37 32 26 23 23 23 23 26 25 23 34 43 42 50 52 42 40 43 37 26 21 29 36 29 33 44 42 42 40 31 29 28 23 21 22 25 25 23 22
8 9 10 11 10 9 10 9 10 12 10 12 20 33 35 24 25 37 31 26 38 40 40 48 47 44 40 30 30 35 33 33 33 31 30 27 31 40 42 45 52 51 47 44 33 27 34 36 36 34 27 25 28 29 32 35 34 28 23 31 39 40 53 60 50 50 55 45 30 25 33 40 36 41 45 37 37 36 28 27 25 19 21 23 24 24 22 23
8 8 8 10 11 10 9 9 10 10 10 17 29 36 34 24 21 31 35 36 41 40 40 46 46 39 31 27 34 37 33 33 33 32 34 32 33 39 44 48 52 52 54 52 38 30 31 30 33 33 23 22 30 32 35 41 38 28 23 33 42 38 44 55 50 45 48 44 35 30 32 31 27 34 40 36 35 33 27 22 17 19 24 24 24 22 21 23
8 8 7 9 9 8 8 8 8 10 15 25 33 34 35 35 32 34 45 48 43 46 50 46 39 33 27 27 32 35 36 38 36 32 33 39 46 47 48 53 54 51 55 55 44 38 38 31 28 33 28 22 25 28 31 36 33 28 31 38 42 36 39 55 53 36 37 46 42 34 37 33 25 32 38 34 30 25 23 19 15 21 26 23 23 22 22 24
9 9 8 8 7 7 9 7 8 14 17 24 36 38 35 41 45 46 53 51 47 53 49 34 31 32 27 27 29 32 37 39 35 29 27 37 49 51 51 53 51 49 51 53 49 45 48 44 32 30 33 27 26 29 30 31 32 35 40 38 38 42 42 47 50 42 46 57 49 38 45 45 38 42 39 30 28 25 20 18 18 24 26 24 23 22 23 24
10 10 8 7 7 7 9 10 14 16 15 24 40 42 39 46 52 55 59 57 56 56 41 28 32 32 28 29 29 31 36 37 33 26 23 33 45 51 56 55 49 48 50 55 56 48 51 58 41 23 25 27 31 37 33 31 34 36 38 34 39 60 63 49 46 52 62 66 54 43 44 43 40 45 41 32 29 25 18 19 24 27 26 25 24 23 24 25
14 14 8 8 10 7 10 14 16 16 20 33 45 43 45 56 59 55 57 59 59 52 36 30 33 30 30 34 32 31 36 37 33 27 27 36 47 56 59 56 52 53 54 59 60 49 49 61 49 25 21 24 27 31 27 29 35 34 34 34 36 51 61 55 50 53 59 60 54 51 49 42 37 38 37 33 26 20 21 26 28 28 26 24 24 23 24 25
16 15 8 8 12 11 12 10 9 19 32 40 44 44 48 59 61 49 45 55 59 47 36 35 35 32 34 36 34 32 35 35 30 27 30 37 51 64 64 63 64 64 62 62 59 50 43 49 48 32 24 24 26 27 22 24 32 36 40 46 48 50 54 57 52 42 44 54 57 60 59 46 33 30 31 29 23 20 24 29 30 29 27 25 24 24 25 24
15 18 11 6 9 10 9 12 16 26 37 39 44 51 53 56 60 50 40 47 54 46 39 41 42 39 36 37 37 34 34 33 28 27 33 40 52 64 71 78 78 75 70 61 54 53 48 46 49 42 28 23 28 31 27 26 28 34 42 46 51 58 62 68 62 40 38 53 57 64 71 55 31 26 28 23 20 21 25 29 31 29 27 27 25 25 26 24
12 20 13 6 11 8 8 24 34 34 40 47 51 56 53 48 49 48 44 46 49 46 40 41 44 43 41 41 40 37 36 34 32 30 35 49 59 63 71 81 81 80 78 63 50 55 59 56 58 51 29 22 34 35 29 33 34 34 41 42 45 57 68 79 77 58 54 61 56 62 72 55 29 24 25 19 18 24 29 30 30 29 27 26 27 27 27 25
10 16 10 5 9 7 13 33 42 42 48 53 51 49 49 46 42 45 48 46 45 44 40 41 44 43 45 47 44 41 39 37 38 35 36 51 66 73 77 77 73 69 67 64 61 63 63 53 47 41 23 20 39 40 32 41 45 36 34 41 53 60 64 74 75 70 77 75 61 67 74 52 29 23 20 18 22 27 30 28 26 27 27 27 29 28 26 25
9 10 7 7 7 8 24 40 43 45 47 44 43 44 46 46 42 47 54 48 44 44 40 40 43 43 44 46 44 41 37 36 40 39 37 48 67 79 75 66 64 61 56 61 69 73 69 47 34 39 35 29 36 36 34 40 38 27 24 39 61 67 64 71 73 71 78 67 52 70 82 55 30 23 18 20 28 32 30 27 25 26 27 29 30 27 24 27
12 10 5 6 3 9 29 37 35 44 46 42 44 44 42 41 38 44 52 45 40 42 42 40 42 43 43 44 46 42 34 33 38 38 36 47 69 83 72 57 59 63 58 57 62 76 80 52 30 38 46 45 44 39 35 33 28 26 27 35 60 74 72 75 77 75 76 65 55 70 74 47 26 23 22 27 35 34 28 27 29 29 29 30 30 28 29 32
16 21 18 11 4 8 22 24 22 35 42 40 38 35 37 42 39 38 44 44 36 38 43 40 37 40 39 41 46 39 30 34 39 40 42 48 63 73 69 61 58 56 54 53 58 75 77 53 36 36 39 44 45 35 31 31 31 37 37 35 53 78 82 76 78 76 69 66 62 55 48 40 33 28 29 35 38 33 28 29 31 31 30 30 29 30 33 36
16 29 32 26 21 19 22 23 26 33 33 33 36 36 36 40 39 35 39 41 34 34 41 38 38 44 41 43 47 39 33 36 38 44 49 48 52 58 60 63 59 53 54 54 55 60 57 51 51 44 37 41 40 33 34 37 33 31 32 33 45 71 81 74 72 64 53 62 62 40 32 43 42 34 37 40 35 30 31 32 32 32 31 31 31 31 35 38
18 25 25 28 37 38 34 33 35 37 33 31 37 38 32 32 37 39 40 38 32 34 40 41 44 48 45 48 48 41 39 40 44 56 55 48 55 59 59 62 55 49 53 52 47 48 49 54 59 52 45 45 43 41 37 32 26 21 26 32 38 52 62 60 57 48 41 53 52 33 32 44 42 38 39 35 29 30 33 32 31 32 32 32 33 33 34 37
14 18 17 21 31 34 32 32 35 38 34 31 38 42 36 33 39 46 46 43 38 35 35 44 52 52 51 50 43 42 49 48 54 65 60 57 66 61 56 61 52 39 41 44 47 54 58 57 57 59 60 52 46 44 33 24 24 24 32 40 37 37 43 44 44 38 33 39 37 32 40 44 39 40 37 28 27 32 33 31 30 31 32 35 35 34 35 41
10 13 13 15 20 22 22 24 32 37 31 26 35 42 38 38 43 45 45 47 49 43 41 50 55 53 55 51 43 53 64 61 63 63 55 61 70 60 56 62 58 47 42 45 53 55 52 51 50 59 68 57 40 33 27 25 25 26 34 39 32 30 35 38 40 36 36 40 36 38 51 52 41 36 32 29 32 33 32 31 31 31 33 36 37 36 38 46
8 8 7 11 22 26 22 19 25 34 34 33 43 47 46 49 50 45 45 47 52 56 56 58 58 54 51 47 50 68 72 63 65 63 54 60 65 60 59 58 57 57 47 50 67 63 53 57 56 60 71 57 32 26 27 24 26 35 43 37 29 34 39 37 37 35 37 44 46 52 63 60 43 31 30 32 34 33 32 32 36 40 38 37 36 38 44 51
5 8 6 11 24 28 26 25 25 29 35 43 53 56 54 54 48 42 45 45 43 45 45 49 56 55 49 50 61 71 66 59 64 62 55 56 50 44 45 42 44 53 50 55 70 62 56 68 66 61 68 56 33 29 30 27 40 55 53 36 28 32 34 33 34 31 30 38 51 62 62 49 35 30 33 35 32 33 36 36 40 44 40 36 39 43 49 54
Wind_Speed
6 7 7 7 7 6 6 5 5 5 4 3 4 4 5 5 6 7 9 9 9 8 7 6 5 5 7 11 15 15 16 14 10 10 11 14 13 9 9 10 9 9 7 5 5 6 8 6 4 3 5 7 5 2 2 2 3 4 2 3 2 2 3 3 4 4 4 4 8 10 12 8 5 5 3 10 13 15 15 16 14 13 14 12 11 11 13 16
6 7 7 7 6 6 6 6 6 5 4 4 3 4 4 5 6 8 9 9 9 8 7 5 4 3 4 7 12 12 13 10 12 16 17 17 13 9 9 9 10 8 6 5 5 6 7 7 5 5 7 7 4 2 2 1 3 4 2 3 1 3 2 3 5 5 5 5 6 5 12 9 5 5 5 4 9 12 11 10 11 12 13 12 13 13 14 17
7 7 6 6 6 6 6 6 6 6 5 4 4 4 4 5 7 8 9 9 10 8 7 6 4 3 1 5 8 9 9 6 14 19 19 17 10 8 9 9 10 8 7 6 6 5 5 6 5 6 8 5 3 1 1 0 2 3 2 2 3 3 2 6 7 6 5 4 6 2 12 10 7 5 4 7 10 10 8 7 8 10 11 12 13 13 15 17
7 7 6 5 5 6 7 6 6 6 6 4 4 5 5 6 7 8 9 11 11 8 6 7 6 5 2 3 6 4 2 3 13 18 17 13 9 9 11 11 11 11 10 8 8 6 5 5 4 5 7 3 2 0 1 1 2 2 2 1 3 4 2 6 7 5 5 4 6 2 9 10 8 8 6 7 7 6 7 7 8 8 10 10 11 13 15 17
7 6 6 5 6 7 6 7 7 7 6 5 5 6 7 7 7 8 10 13 14 10 7 10 12 12 11 7 5 2 3 1 11 18 14 12 10 11 12 13 13 13 13 11 10 8 6 4 4 4 6 1 2 1 2 3 1 2 2 2 5 5 3 5 6 5 5 5 5 2 5 7 7 9 10 7 4 4 7 8 8 9 9 10 11 12 15 17
7 6 5 5 6 6 6 7 8 8 7 6 7 8 8 7 7 8 11 14 16 12 7 11 15 17 18 17 14 10 4 2 11 16 13 12 10 11 13 13 14 15 15 13 9 7 6 4 4 4 3 1 3 1 3 2 1 1 1 2 4 5 3 5 4 4 4 3 1 2 6 8 9 8 9 11 9 8 8 8 8 9 9 9 11 13 15 17
6 6 5 6 6 6 7 8 8 8 7 7 8 8 8 7 7 7 9 13 16 14 8 7 10 12 12 14 15 15 12 7 12 14 12 12 11 11 12 13 15 17 15 12 9 6 6 7 3 2 2 2 3 3 2 1 1 1 1 2 3 3 3 4 2 1 1 2 2 4 7 7 8 7 8 11 10 9 8 8 8 8 9 10 12 13 15 16
6 6 6 6 6 6 7 7 8 7 6 7 7 7 7 7 6 6 8 12 15 17 14 8 8 10 8 5 5 11 16 12 12 13 11 11 11 11 12 13 15 14 12 11 11 8 4 6 6 4 2 2 1 2 1 1 2 3 2 1 1 2 4 5 3 2 2 3 4 5 6 5 8 9 8 9 8 8 7 7 8 7 8 10 12 13 14 15
6 6 6 6 6 7 7 7 7 6 6 7 7 7 6 6 6 6 8 11 15 18 18 16 13 11 9 5 2 6 13 12 11 12 11 10 10 11 12 12 13 11 10 12 12 9 7 7 6 5 3 4 1 2 1 2 2 3 1 1 3 3 4 5 5 3 1 3 5 4 5 6 11 10 6 7 7 7 7 6 6 6 7 8 10 11 12 13
6 6 6 6 6 7 7 7 6 5 6 6 6 6 6 7 6 8 10 12 14 15 15 16 17 16 12 9 8 6 9 11 10 11 11 10 10 10 10 9 11 9 9 14 15 11 8 7 4 3 2 3 3 3 3 1 1 1 2 2 2 4 5 4 4 4 1 1 1 3 4 7 9 4 1 7 7 6 7 6 5 5 6 7 8 10 11 12
6 6 6 6 7 7 7 6 5 5 5 5 6 6 6 7 7 8 10 11 11 12 13 13 15 16 16 20 18 9 9 11 10 11 10 8 9 8 9 10 10 9 7 12 17 13 10 7 3 1 1 2 3 4 4 3 1 2 3 2 1 4 4 4 2 4 4 1 3 5 3 5 4 2 3 9 7 6 7 6 5 4 5 6 7 8 9 11
6 6 6 6 6 6 6 6 5 4 5 5 5 6 7 7 7 6 6 7 7 8 11 13 15 12 15 26 25 14 11 12 11 12 10 7 8 8 9 12 11 9 6 10 16 16 15 12 6 3 3 2 1 2 3 4 2 2 2 1 3 4 3 3 1 2 4 1 2 3 2 4 5 3 7 9 8 8 7 6 6 5 5 4 5 6 8 9
6 6 6 6 6 7 7 7 6 5 5 5 5 6 7 7 7 6 6 7 8 8 7 10 15 14 16 20 19 16 15 13 11 10 8 5 7 8 10 14 13 9 7 9 15 19 19 17 12 9 9 6 2 3 2 2 2 3 4 2 3 3 2 4 3 2 2 3 3 2 2 3 6 7 9 10 9 10 8 7 7 5 5 4 4 5 6 8
6 6 5 5 6 7 8 8 7 6 5 5 6 7 8 9 9 9 8 7 9 11 9 7 9 12 15 13 13 19 17 14 12 10 10 6 6 7 9 13 14 10 9 7 10 17 19 17 14 12 13 8 3 3 1 2 2 2 2 2 1 2 2 4 4 3 2 2 0 2 3 3 6 9 11 11 10 11 9 8 7 6 5 4 4 4 5 6
6 5 5 6 8 9 10 10 9 7 7 7 8 8 10 11 12 13 13 11 9 11 11 9 9 8 10 10 12 17 17 17 17 17 16 11 7 5 6 11 12 10 12 10 7 11 16 17 15 12 12 8 1 1 2 3 2 2 3 1 3 4 4 2 4 1 2 0 4 3 4 3 6 10 13 12 11 11 9 9 7 6 6 5 5 4 4 4
5 6 7 8 9 11 13 15 15 13 11 9 8 8 9 11 13 14 13 13 11 10 11 11 11 10 8 8 11 15 19 20 19 19 17 15 11 5 6 10 10 8 9 12 11 9 9 10 12 14 14 8 3 3 2 1 2 4 5 4 5 5 6 4 2 3 1 3 4 2 4 6 4 11 14 13 12 12 10 10 9 7 6 5 4 3 3 3
6 7 8 9 13 17 20 22 23 23 21 17 12 8 7 7 6 5 7 8 8 11 14 12 9 11 11 11 13 17 21 20 19 18 15 14 12 6 6 6 6 7 6 8 12 9 8 7 5 9 12 9 7 4 2 4 4 4 4 3 4 5 6 6 2 1 2 5 4 4 7 7 3 12 15 14 13 12 11 10 9 8 7 6 4 3 2 3
7 7 9 13 18 19 18 18 19 22 25 24 22 19 15 12 7 7 8 8 10 11 13 13 7 7 9 15 15 14 19 22 21 18 11 10 11 5 5 4 6 10 7 3 12 12 8 8 6 4 7 8 8 7 4 3 4 4 5 4 4 6 6 7 6 3 4 5 7 9 8 6 4 10 13 15 14 12 11 10 9 9 7 6 4 3 2 3
7 8 12 17 16 13 12 11 11 13 17 19 19 20 20 21 20 21 24 23 19 12 7 13 12 5 3 15 16 10 15 22 22 18 10 7 9 6 5 5 7 10 6 3 11 15 9 6 7 4 6 7 6 6 3 3 5 6 6 5 5 7 6 7 9 6 4 5 8 9 8 7 5 9 11 14 15 12 11 10 9 9 7 5 3 2 2 3
9 11 14 15 10 9 10 10 8 6 6 6 6 7 8 12 15 18 28 33 28 17 10 12 14 10 8 15 19 14 12 16 20 23 14 7 7 6 7 7 4 6 8 2 5 12 10 7 6 5 5 6 6 5 3 3 5 6 6 6 5 6 6 9 13 8 2 3 8 9 9 11 8 8 12 14 14 12 11 11 10 8 6 4 2 1 2 4
12 13 13 11 6 8 9 10 10 8 9 8 8 8 6 6 7 9 19 25 22 18 16 15 13 13 12 14 19 18 13 12 19 27 18 9 9 5 9 11 3 3 4 3 5 9 12 8 5 6 5 6 6 5 5 6 7 5 5 6 5 6 8 12 13 7 2 2 8 12 11 11 10 4 11 14 12 11 12 12 10 8 5 3 2 3 4 6
13 13 11 8 6 7 7 8 11 11 12 13 15 19 18 16 16 15 14 14 16 17 15 17 17 17 14 12 14 15 14 13 18 28 23 16 13 7 10 12 5 5 6 3 4 5 8 6 5 7 6 6 6 4 6 11 9 5 4 4 5 6 9 11 9 6 5 4 9 14 11 9 11 4 9 13 10 9 12 10 8 7 4 2 3 5 6 9
11 11 9 7 7 7 6 7 8 6 6 8 12 16 18 18 17 15 11 8 11 15 15 15 18 21 19 14 13 13 15 15 15 25 27 20 16 11 10 8 5 6 8 7 5 4 4 4 7 9 6 6 6 4 9 11 9 4 2 3 5 8 9 8 9 11 10 7 11 14 10 9 10 2 7 10 10 9 9 8 7 5 3 3 4 6 8 11
10 10 9 7 6 6 7 7 6 4 4 5 5 7 10 13 12 10 7 5 5 9 13 13 14 21 21 17 17 11 10 15 15 21 25 22 16 9 6 6 4 5 5 5 6 7 4 3 8 9 6 4 5 7 9 6 7 5 4 5 7 12 11 10 13 14 12 9 9 7 7 7 3 4 6 6 9 10 9 8 7 4 3 3 6 8 10 14
8 8 7 7 6 6 6 7 6 4 5 5 2 2 8 8 5 4 3 3 3 6 10 10 10 17 20 20 21 8 2 12 17 19 22 22 17 7 3 5 4 4 5 5 4 6 4 3 7 8 6 6 5 5 6 4 5 5 2 6 10 14 15 15 14 11 9 7 1 3 4 6 3 2 5 5 6 7 8 8 7 5 3 6 9 11 14 18
5 5 6 7 7 6 5 5 7 6 5 6 4 0 6 7 4 1 1 1 2 6 8 8 8 13 18 21 22 6 3 8 13 17 20 18 17 9 4 5 3 3 3 4 3 2 2 4 6 7 6 8 6 4 4 4 4 4 3 7 12 14 15 17 14 8 5 6 5 3 3 6 7 6 2 8 5 6 7 5 5 5 8 11 14 16 19 23
3 3 3 5 6 6 4 3 6 6 5 6 5 2 2 4 4 3 1 1 2 5 7 8 7 11 13 17 22 7 2 9 9 15 22 17 15 10 4 4 2 2 1 1 2 1 3 6 6 7 6 6 6 5 5 4 2 5 6 9 13 15 16 17 13 7 5 6 9 7 3 6 9 8 2 9 7 6 6 4 5 8 12 15 17 18 20 25
1 2 3 4 5 5 4 5 7 6 6 5 4 3 1 2 4 2 0 1 3 5 4 6 6 11 11 12 21 13 2 10 7 11 21 17 14 9 4 5 3 3 1 1 1 1 2 4 4 5 5 5 5 6 7 4 1 6 8 9 12 14 17 17 10 7 6 4 6 6 8 8 9 10 3 6 6 6 6 5 6 11 14 15 18 20 25 32
4 5 6 6 7 7 7 7 8 7 6 5 4 3 1 3 5 2 1 1 3 3 3 6 6 11 13 9 16 15 8 10 8 11 17 16 17 9 1 5 6 5 3 1 1 1 1 3 2 2 3 3 4 8 8 3 3 9 10 10 11 11 14 13 6 5 5 2 4 6 12 8 9 11 6 2 2 2 4 5 7 12 15 18 19 22 30 32
7 8 9 9 9 9 10 9 8 5 5 5 2 2 2 4 3 1 1 1 2 3 3 7 5 9 14 7 8 14 10 9 11 13 13 14 19 17 5 4 9 5 2 3 3 2 3 3 3 2 1 2 5 9 8 4 7 11 10 9 9 8 9 6 1 2 4 3 3 9 14 11 8 7 3 2 2 2 4 5 6 10 17 22 20 23 31 31
9 11 11 12 12 11 10 9 6 4 5 4 1 1 2 2 1 1 1 0 2 4 3 5 4 6 9 3 3 10 7 6 13 12 10 10 16 21 12 5 9 5 1 2 3 2 2 2 1 2 1 4 5 8 7 4 6 8 6 7 8 7 5 3 3 4 4 5 7 12 16 12 8 4 3 3 3 6 5 4 3 8 17 24 24 27 31 31
10 10 10 10 10 10 9 7 5 4 3 2 2 1 1 1 3 2 1 2 2 3 2 1 3 5 5 1 2 7 3 4 10 8 5 5 7 11 10 5 6 4 2 4 4 2 0 1 1 1 1 6 6 5 6 5 5 5 5 6 7 7 6 5 5 4 4 8 10 14 15 9 6 4 4 5 5 6 3 3 4 13 21 26 27 29 31 34
7 7 6 6 4 4 4 4 3 2 2 2 2 0 1 2 3 1 2 3 1 2 1 2 4 5 5 3 3 4 1 1 7 8 5 4 5 4 8 9 8 4 2 4 5 5 2 1 1 0 2 6 6 3 3 4 5 6 7 6 5 5 6 5 6 5 6 10 12 14 12 6 6 4 2 4 6 5 3 3 13 23 25 27 30 31 34 39
7 8 6 5 3 2 1 1 1 1 3 3 3 2 5 4 2 1 2 3 1 2 1 2 4 5 2 1 2 3 2 0 3 7 6 4 4 3 5 9 11 6 3 3 2 3 3 3 2 2 3 4 4 2 1 4 5 4 6 4 3 3 3 3 4 5 8 11 13 12 7 4 6 3 2 4 7 10 1 15 27 30 30 32 34 34 38 43
8 8 7 5 4 4 4 3 2 4 4 2 1 4 6 3 1 2 2 1 1 3 3 1 3 3 1 2 1 2 3 1 2 5 5 4 4 4 4 5 9 7 3 2 1 2 3 3 2 2 2 2 3 1 2 2 3 3 5 3 2 2 1 3 6 6 9 11 9 7 4 4 7 3 3 4 5 3 13 30 35 33 34 37 37 37 42 45
9 11 11 7 5 5 5 6 5 5 3 1 4 5 4 2 1 2 2 2 1 3 5 3 2 2 3 1 1 4 3 0 2 1 2 3 3 5 4 2 5 7 4 2 2 2 1 5 6 4 2 1 1 2 1 1 2 2 4 3 3 5 2 2 7 8 8 9 7 6 6 7 7 4 2 3 8 12 20 29 31 31 34 37 36 39 44 45
11 14 14 12 10 8 6 6 6 6 5 6 6 4 2 1 2 2 3 3 1 2 3 2 1 2 4 2 3 6 5 1 3 3 1 2 1 4 4 2 4 7 5 2 1 1 1 6 10 5 3 1 4 2 1 1 2 2 2 2 4 6 2 1 5 7 7 8 6 7 11 10 7 4 4 10 15 15 18 23 27 30 33 34 35 41 46 45
13 15 14 13 12 8 6 7 6 8 12 11 7 3 2 2 3 3 3 3 2 2 2 2 1 1 3 3 3 6 6 4 5 4 2 1 1 4 4 2 4 8 8 4 1 1 1 4 5 1 5 4 4 3 2 2 0 1 1 1 1 2 1 2 4 6 8 9 8 10 13 9 5 5 9 13 15 18 21 21 21 23 28 32 37 44 46 43
9 11 13 14 12 9 6 6 8 12 12 8 4 3 2 1 3 4 3 3 2 2 1 2 1 1 2 2 2 3 3 3 4 4 2 2 2 4 5 3 3 9 12 6 2 3 1 2 3 2 9 9 2 2 3 2 0 1 1 1 1 1 1 1 2 3 6 10 10 12 13 6 3 6 10 14 18 21 22 18 16 21 30 36 41 45 44 42
6 6 9 12 14 14 10 12 16 16 9 5 4 2 2 2 2 4 5 3 1 2 2 2 2 2 2 1 0 1 2 2 3 3 2 3 2 3 6 5 4 9 13 5 1 4 3 3 4 5 9 8 2 1 2 2 2 2 2 2 1 1 1 2 2 3 3 8 10 11 12 7 3 5 11 17 20 20 20 17 17 25 36 41 44 45 43 43
8 6 6 9 8 7 10 17 18 12 4 4 5 2 2 2 2 3 6 6 3 4 3 2 2 2 2 2 0 1 2 3 3 2 2 3 3 2 5 6 5 7 8 4 0 2 3 3 4 6 7 6 2 1 1 1 1 1 3 1 1 1 1 3 5 4 2 6 8 10 13 9 3 6 12 16 17 19 23 23 23 31 41 44 44 44 44 46
9 5 6 9 7 4 10 14 11 7 4 4 4 3 3 2 1 2 5 5 4 3 2 1 1 2 1 2 2 2 3 2 3 3 2 3 4 3 4 6 6 4 3 3 2 1 1 2 4 4 6 5 2 1 1 0 0 1 1 1 1 1 2 1 6 7 5 7 9 9 13 9 4 9 13 18 21 23 27 30 31 36 43 44 43 45 46 48
13 8 7 7 7 9 13 9 5 6 5 2 2 4 4 3 2 2 3 4 3 2 2 1 1 2 1 2 2 3 3 2 2 3 3 4 3 2 3 5 6 5 3 3 4 3 1 2 3 5 6 4 1 1 1 1 2 2 1 2 1 2 3 3 4 5 6 7 8 9 12 10 5 11 19 26 29 27 29 34 36 39 43 43 43 46 48 49
17 18 17 11 3 6 10 5 2 4 3 2 4 3 4 5 4 3 2 4 3 2 2 1 1 2 2 2 2 2 2 2 2 3 3 3 2 0 3 5 6 5 3 0 2 5 3 1 3 6 7 7 5 4 4 2 3 4 2 1 3 3 2 2 3 4 5 7 9 9 13 13 8 13 22 25 24 25 32 39 40 39 42 43 43 47 50 50
11 14 20 20 13 11 10 6 7 6 2 3 4 2 2 4 5 4 4 3 3 2 2 1 1 3 2 1 2 2 1 1 1 1 2 3 1 2 1 4 5 4 2 1 3 4 2 2 2 3 4 7 7 6 7 8 6 5 5 3 1 5 4 2 3 5 6 10 11 8 12 17 16 18 21 20 18 22 32 39 40 39 41 43 46 49 50 49
4 4 9 16 19 20 16 12 12 8 4 3 3 2 2 2 2 4 3 2 3 3 2 1 2 2 2 2 2 2 1 2 1 2 2 2 2 2 1 2 3 2 2 5 6 2 2 3 2 3 1 5 7 10 11 11 10 9 10 8 1 5 5 4 2 6 9 11 12 9 13 21 23 21 20 19 20 23 28 35 39 39 41 45 48 49 49 47
5 2 2 5 10 14 14 12 10 6 3 2 2 1 3 2 2 2 2 1 2 3 1 1 2 2 3 4 3 2 2 0 3 3 1 1 2 2 2 2 1 1 1 3 6 3 1 2 2 3 5 8 10 14 15 12 12 13 13 10 2 5 4 2 1 8 11 10 13 18 22 23 23 22 19 18 22 23 26 33 39 41 43 46 49 50 48 47
5 3 3 4 3 3 4 6 7 6 5 4 2 1 2 2 1 2 2 2 2 3 2 1 4 4 4 4 3 3 5 3 2 2 1 1 1 2 2 2 1 0 1 2 6 3 1 2 0 1 8 12 12 14 14 11 11 12 11 8 5 5 3 3 4 7 9 10 16 25 28 25 22 20 17 20 26 27 29 37 41 43 46 48 48 48 46 47
10 8 6 7 6 4 4 4 4 6 6 4 3 2 2 3 2 1 1 2 1 2 3 2 4 5 4 4 4 2 4 3 0 1 1 0 1 2 2 1 1 2 3 3 4 2 1 1 2 2 7 13 12 11 12 13 12 10 5 5 6 7 6 7 7 8 10 13 18 24 26 23 17 15 18 27 36 36 36 40 42 44 48 49 48 47 46 48
9 8 9 13 11 7 6 3 1 2 3 3 3 2 2 3 3 1 2 4 1 2 4 3 4 4 2 4 4 2 2 2 2 2 1 1 2 2 1 1 1 3 5 3 3 2 1 2 4 2 4 10 11 9 13 15 13 7 2 7 8 8 7 7 10 11 12 16 19 20 21 17 12 17 26 33 38 38 38 40 42 45 48 48 47 48 50 51
11 12 15 16 9 4 4 3 3 0 2 4 3 1 1 4 3 1 2 4 3 3 3 3 5 3 1 2 3 3 2 2 1 1 1 2 0 1 1 1 1 1 2 2 1 2 2 3 4 2 2 7 8 11 16 19 12 2 3 7 9 8 7 7 9 12 15 19 20 18 13 10 13 23 30 32 35 36 36 39 41 43 45 44 45 48 52 53
14 14 12 10 6 3 3 4 4 2 2 3 3 3 2 3 2 1 2 2 4 5 3 3 6 4 2 1 2 1 2 1 3 2 3 4 6 8 8 6 5 3 1 1 1 1 3 3 3 3 3 6 9 13 15 16 8 1 2 6 7 8 11 10 10 12 15 16 14 12 10 11 19 26 26 25 29 30 32 38 40 39 39 41 43 47 50 52
Wind_Direction
92 86 82 82 79 80 78 75 70 64 60 52 53 52 51 53 56 47 38 33 31 33 32 35 42 62 86 92 91 86 80 74 35 19 31 15 354 343 343 343 337 332 330 323 340 350 337 318 284 269 280 270 239 212 249 246 278 283 263 240 267 12 45 15 16 22 333 326 342 12 58 74 34 1 100 92 74 80 72 64 64 61 60 53 44 35 25 25
96 91 87 86 83 81 75 67 58 53 45 44 57 60 62 68 61 43 32 26 21 17 16 18 17 46 102 113 107 101 98 84 26 20 16 359 345 347 354 354 352 349 352 344 359 360 336 330 325 310 285 256 195 185 250 208 257 258 266 267 3 33 70 23 19 31 356 337 328 29 82 75 55 349 313 98 79 77 74 58 59 55 51 48 43 38 34 34
101 96 91 89 86 79 69 59 50 43 37 49 77 78 84 83 60 40 29 24 18 9 13 25 15 9 145 147 131 111 106 80 23 11 353 348 346 355 6 13 12 10 12 8 20 11 336 329 319 305 285 254 152 193 257 137 268 262 292 309 42 27 79 50 33 36 5 341 318 13 96 77 59 16 329 116 93 71 72 59 55 52 46 44 42 40 38 39
106 101 96 92 85 76 65 57 47 39 39 63 99 99 101 86 59 42 35 33 27 20 32 45 33 19 36 170 171 138 113 84 25 1 345 358 9 15 26 31 32 36 31 24 29 23 5 342 318 300 282 271 83 299 309 43 312 337 354 352 20 346 21 54 45 39 353 328 303 288 109 91 71 41 26 117 113 75 83 77 66 62 54 48 45 44 43 43
108 101 96 92 83 76 67 58 46 43 49 78 106 105 100 81 59 50 46 43 37 39 63 66 60 64 69 86 123 50 323 152 11 358 9 26 26 31 36 40 45 49 40 30 22 360 341 316 276 267 257 229 83 194 40 44 284 356 30 34 11 344 1 56 45 30 347 315 286 276 107 107 95 57 38 65 104 101 99 95 88 77 65 58 53 47 47 45
107 99 96 91 80 74 65 54 46 45 55 81 99 100 94 77 65 63 55 46 37 40 76 86 74 73 77 78 74 47 35 71 358 3 29 31 31 38 36 42 48 46 34 25 11 337 330 309 239 245 266 71 53 58 40 35 231 289 65 41 19 359 18 62 48 24 355 331 305 98 101 109 104 81 64 73 93 114 111 106 99 87 77 68 61 53 50 47
104 100 97 85 75 69 58 50 45 45 58 82 95 97 91 75 70 74 58 42 34 41 74 105 73 57 68 76 72 60 63 51 4 16 32 25 33 34 32 41 46 39 25 19 11 352 354 356 356 325 352 83 45 40 41 347 286 332 76 43 39 32 56 85 81 58 37 44 87 131 132 128 117 108 98 96 109 125 120 113 106 94 84 71 64 57 52 50
104 101 93 79 71 61 50 47 47 50 69 93 103 100 90 75 74 75 57 46 46 56 69 81 58 39 42 59 82 54 40 23 13 28 29 22 29 30 31 37 46 38 17 22 16 6 3 8 23 345 352 93 45 57 43 309 356 36 70 75 99 105 121 138 159 148 139 112 125 150 135 123 123 119 110 111 124 132 130 122 112 98 86 72 65 60 54 52
106 98 86 75 61 51 45 49 54 65 91 111 113 101 87 77 71 61 57 59 64 69 73 73 62 52 48 33 71 48 20 11 18 27 25 22 25 29 30 31 48 40 10 23 24 29 36 18 16 346 23 69 33 77 25 321 16 47 93 144 146 154 149 167 170 145 189 130 142 161 130 128 129 120 107 121 130 133 138 132 123 106 90 77 68 63 57 53
104 94 81 65 51 49 49 53 63 82 106 121 112 95 81 73 68 66 71 75 72 69 73 76 65 57 64 70 77 59 11 15 23 23 21 22 23 25 28 32 50 41 8 19 26 41 42 15 14 355 30 76 67 52 5 325 22 121 132 64 122 161 158 191 178 137 193 126 174 245 159 151 155 157 119 137 143 140 142 139 135 120 97 87 78 68 60 56
100 86 69 55 51 54 51 53 66 89 111 117 99 81 74 71 75 80 80 76 67 61 63 74 70 57 59 67 67 46 10 24 28 24 22 23 29 27 31 36 47 47 18 19 28 42 43 24 53 88 38 97 101 73 51 82 102 176 145 47 242 194 172 201 183 146 188 139 342 287 197 162 191 236 127 141 158 158 153 149 145 137 116 101 90 78 66 58
91 73 58 54 55 51 46 50 59 85 106 103 88 74 73 74 76 78 68 55 43 49 57 60 65 57 50 56 51 28 20 34 23 17 19 29 43 38 37 38 45 57 47 34 37 47 51 45 61 78 33 27 70 80 86 100 102 174 187 260 250 231 204 191 148 161 211 140 30 299 243 201 207 173 138 150 165 167 171 167 161 152 136 122 102 88 73 62
79 64 58 57 52 47 44 47 53 73 89 87 81 75 78 75 66 56 43 47 43 45 58 60 62 57 51 56 43 25 30 34 17 9 15 31 51 39 35 39 41 51 53 51 51 53 56 53 54 51 34 23 49 83 102 130 132 197 199 227 260 253 219 177 167 333 290 148 137 158 281 231 179 157 155 166 172 176 185 177 173 167 150 138 116 95 78 66
72 62 58 54 51 49 44 43 45 53 70 78 80 84 86 80 70 60 50 60 63 57 65 77 67 48 50 62 37 25 30 30 27 33 32 36 50 26 17 30 35 40 39 49 58 54 57 53 45 42 30 24 95 103 48 158 173 245 175 173 285 349 315 181 165 353 19 125 111 215 267 249 172 167 168 173 181 186 190 179 174 173 160 147 131 108 87 71
71 64 59 61 58 56 56 57 55 55 72 83 88 93 92 88 83 74 65 67 72 72 78 81 75 59 55 58 26 20 27 25 26 30 26 29 41 23 13 29 36 39 35 43 49 47 58 59 50 41 25 17 93 186 265 194 205 13 53 324 353 11 318 239 151 122 134 359 326 283 269 259 177 173 174 175 187 193 193 181 174 172 165 153 142 123 96 77
77 70 68 68 68 76 83 83 80 77 82 89 96 94 92 98 98 86 66 56 64 80 88 82 78 78 68 46 25 22 26 22 21 20 12 17 27 27 33 30 31 26 24 35 28 18 31 46 57 46 29 17 338 269 204 130 338 35 39 323 340 353 311 303 153 150 176 307 310 261 272 281 189 169 177 179 186 194 195 186 178 174 166 156 148 132 105 75
81 74 70 79 89 96 93 88 85 83 83 83 85 89 93 98 96 66 30 42 73 80 76 75 85 87 65 40 25 15 20 23 18 11 359 7 18 28 45 36 22 355 334 13 10 355 350 1 56 46 30 28 359 350 87 47 353 360 9 318 321 336 315 311 300 126 346 318 309 291 272 275 189 162 177 182 185 194 198 191 183 177 167 161 154 132 99 55
77 70 82 100 103 97 87 83 83 85 86 84 82 83 83 81 72 61 65 88 96 79 65 54 57 98 53 21 11 3 23 32 17 3 351 3 20 42 51 25 355 334 300 8 19 13 14 23 50 45 25 29 19 26 48 18 335 317 334 321 308 324 315 308 315 360 4 332 313 303 282 269 178 163 179 182 183 195 199 193 185 183 175 167 157 118 77 35
75 79 103 116 107 83 75 79 83 92 93 89 84 80 78 77 75 72 72 77 74 67 56 34 30 76 29 5 10 6 29 34 17 8 3 360 25 56 46 358 350 5 13 71 32 26 38 49 42 34 19 12 17 35 27 333 318 302 310 300 293 310 305 307 317 331 2 334 297 288 287 281 219 179 182 178 182 195 197 190 189 192 183 169 153 101 45 11
85 93 117 126 102 64 67 71 76 91 92 83 72 72 76 72 66 59 61 65 67 65 59 42 37 51 39 18 24 24 30 33 18 17 17 358 7 25 17 336 303 40 47 80 39 34 47 63 42 18 2 349 354 3 341 310 297 293 300 292 296 309 308 313 311 311 23 340 285 278 285 285 263 197 174 173 181 191 191 186 188 191 182 165 129 63 4 353
95 101 121 126 86 62 66 66 72 74 70 73 77 84 97 90 88 76 64 64 66 66 59 50 44 38 27 18 25 27 25 21 15 20 25 17 5 349 5 2 327 44 40 143 117 55 48 56 38 11 350 331 321 305 320 330 307 285 277 288 315 323 311 306 302 308 14 302 282 282 280 278 280 220 164 170 176 187 190 186 182 174 164 150 88 14 347 344
100 101 113 106 73 68 68 69 76 74 68 72 83 90 95 97 98 96 88 75 60 58 54 47 44 34 22 15 22 29 25 13 7 15 21 28 33 27 13 21 47 30 19 89 113 52 47 50 17 358 339 325 303 285 351 351 328 281 260 294 331 331 314 299 291 312 324 300 288 288 285 280 284 260 160 169 177 184 182 170 157 149 134 83 30 359 349 347
99 95 95 82 75 70 62 63 65 65 55 60 82 93 97 98 94 90 92 93 62 45 36 38 36 26 21 14 12 26 33 25 5 4 10 23 36 32 16 21 57 41 29 43 50 44 50 38 3 343 324 320 316 356 22 359 334 308 337 360 331 329 325 304 301 313 310 284 275 284 290 289 286 256 151 172 167 147 141 134 122 117 99 52 10 352 356 354
98 89 80 67 71 66 58 55 45 43 35 54 91 105 114 109 100 92 80 101 90 34 21 31 29 19 16 11 7 14 35 33 19 3 6 17 23 24 22 13 27 47 33 32 72 85 71 13 349 329 303 307 326 13 32 6 332 336 26 27 332 321 313 296 300 310 308 284 267 287 301 293 280 155 159 167 143 126 128 136 124 112 106 59 12 1 6 358
98 84 71 55 61 64 62 50 35 36 28 36 62 162 160 145 120 95 72 120 98 11 5 19 20 12 9 7 5 360 80 37 23 6 7 17 18 17 26 7 12 42 8 3 70 93 67 10 341 330 328 2 9 19 36 22 332 320 13 12 330 313 304 297 302 315 320 304 300 51 316 296 312 204 183 152 136 138 146 152 145 133 89 38 18 13 8 356
99 80 63 52 57 59 57 32 16 16 15 23 25 58 184 196 220 236 317 157 52 350 348 1 2 5 8 9 5 2 148 32 19 12 13 18 18 15 11 5 32 61 1 359 55 102 31 24 360 348 356 18 19 3 23 35 344 294 314 348 322 307 304 300 306 321 309 296 306 310 286 296 313 314 171 150 154 148 146 154 141 96 48 33 20 11 3 352
96 58 35 32 44 47 44 4 350 358 7 6 8 34 170 201 203 219 280 129 40 342 341 354 356 5 13 15 18 48 177 343 354 16 16 14 15 24 30 6 22 54 25 8 30 311 349 24 16 354 3 30 15 335 342 11 347 280 306 334 316 307 303 295 300 302 264 287 299 290 339 334 312 328 87 148 153 149 148 153 113 59 34 29 14 357 353 347
319 339 341 350 358 358 351 334 331 343 355 348 358 40 129 162 158 166 46 127 351 333 338 355 358 10 24 34 35 57 58 345 348 9 14 14 15 28 49 20 344 311 343 120 54 312 336 32 23 338 357 27 356 313 313 339 289 268 294 315 304 299 295 289 288 277 270 308 291 295 6 349 304 319 346 146 149 156 147 129 84 45 26 10 353 346 349 347
302 312 313 316 315 315 313 315 319 324 337 341 354 14 46 144 153 140 57 184 333 342 349 2 354 359 9 33 40 39 29 18 8 355 12 22 21 30 86 18 356 309 313 45 128 183 108 76 77 350 6 15 318 302 298 274 241 273 291 302 295 291 289 283 265 253 279 294 267 331 3 340 297 313 327 102 97 107 108 88 56 33 8 343 340 348 349 345
307 307 307 306 301 301 298 299 305 304 321 333 345 24 82 119 143 76 24 234 358 5 350 11 3 345 357 15 38 20 14 22 6 359 16 26 26 33 50 2 357 332 292 7 47 120 106 95 106 71 360 287 297 313 307 251 252 280 299 308 305 301 291 287 265 280 294 267 287 351 350 326 303 313 354 68 51 52 63 52 27 12 357 346 348 353 348 345
310 306 304 301 295 293 289 288 290 280 302 308 251 35 82 106 54 73 69 259 6 358 346 14 1 344 5 29 18 3 360 3 1 6 17 18 23 27 32 6 352 356 237 10 37 112 104 98 136 131 282 309 329 335 330 306 286 295 314 324 324 321 310 338 8 334 316 299 323 343 333 318 303 308 64 93 100 81 67 53 2 348 353 352 354 354 349 347
315 309 304 300 291 285 274 267 274 267 285 283 218 283 301 40 28 54 360 329 345 360 358 352 341 342 352 353 348 355 350 345 357 4 10 28 38 30 42 40 346 356 19 5 357 327 34 159 237 170 313 354 10 343 331 339 338 340 339 338 344 342 341 348 341 343 326 301 314 329 323 310 290 316 56 106 112 89 91 117 18 350 351 355 357 354 347 345
341 338 334 331 313 287 262 242 262 268 242 200 183 347 31 68 41 45 340 351 334 332 323 246 301 312 302 322 356 345 334 294 347 351 352 51 80 62 66 50 11 359 329 342 337 332 357 181 306 319 316 8 28 6 342 332 340 357 346 350 8 347 335 330 324 332 309 295 307 315 310 298 292 307 64 99 115 131 154 48 359 350 355 1 358 350 345 345
18 12 6 7 29 54 79 172 212 177 152 170 179 70 55 71 65 60 27 20 359 294 302 253 295 296 284 28 23 347 17 192 345 3 359 34 62 38 51 36 17 9 315 328 344 346 352 311 331 354 306 359 36 72 99 296 309 358 349 353 28 352 321 304 307 317 303 299 308 309 304 326 322 298 127 105 150 177 227 1 352 350 360 0 352 348 347 346
29 18 15 16 35 56 61 79 130 137 135 134 94 59 58 78 76 45 30 344 356 322 319 303 295 300 35 87 84 30 44 9 355 34 24 28 44 14 14 18 13 11 342 336 352 2 346 290 307 6 291 7 42 141 165 292 309 349 343 358 27 343 301 262 278 293 298 296 305 311 302 319 319 292 158 135 168 223 347 355 351 352 358 355 349 348 346 342
44 41 39 36 42 56 68 81 97 120 143 88 61 59 59 74 15 22 353 294 334 328 314 314 320 345 8 34 43 21 42 46 323 23 71 65 57 27 27 27 11 17 19 3 344 10 348 283 298 320 306 122 120 197 184 349 334 319 333 1 311 288 240 246 286 292 298 294 297 309 299 307 319 297 202 15 360 354 350 348 348 352 355 351 347 345 342 337
57 54 49 51 58 61 78 92 94 100 91 73 74 69 50 52 9 358 351 333 320 296 306 329 18 15 351 351 13 357 351 341 328 333 82 103 43 9 11 32 39 30 15 358 344 94 136 288 293 306 335 252 181 153 91 326 347 338 329 340 301 282 211 140 303 304 310 300 293 303 306 314 321 306 347 1 354 349 344 343 349 355 353 346 342 340 337 332
58 56 49 48 52 53 73 89 90 90 81 74 81 80 45 30 20 11 355 341 298 272 334 10 38 57 356 350 345 342 347 356 344 347 36 72 360 18 9 6 44 25 360 347 326 46 71 295 278 284 353 314 181 117 12 260 127 40 320 324 348 316 323 346 321 313 314 305 299 309 309 311 314 320 347 353 346 345 345 348 352 352 348 343 338 336 333 330
55 55 47 45 51 53 67 102 97 87 79 71 85 86 67 74 39 24 7 341 298 295 7 27 12 59 38 6 332 340 3 4 337 342 23 11 356 43 36 351 342 352 348 344 320 334 336 276 275 326 329 314 235 88 344 294 199 96 22 360 79 71 287 278 283 287 306 306 306 313 309 311 354 339 343 347 347 348 347 348 351 346 344 340 336 332 330 330
62 64 48 47 60 66 82 103 88 75 68 64 79 76 62 110 75 27 30 32 2 3 25 14 352 357 11 20 139 360 342 310 323 344 17 16 12 56 40 11 328 328 333 327 317 343 316 257 290 314 316 315 327 51 337 342 343 338 338 330 52 48 253 237 249 251 303 309 308 312 305 310 15 359 349 351 348 347 346 347 347 343 340 337 333 331 329 330
70 72 38 35 49 63 86 86 68 51 54 70 70 62 54 106 115 31 34 43 51 43 37 28 11 1 344 334 259 9 322 299 333 6 41 34 31 45 23 3 335 325 328 322 300 6 349 285 285 306 319 326 336 192 208 136 156 304 328 327 104 48 343 326 301 289 323 307 300 305 298 300 23 20 353 350 345 346 351 349 344 340 337 333 331 331 330 330
74 66 16 36 51 64 85 75 41 23 65 67 53 61 65 92 100 33 26 33 44 35 19 40 30 4 354 338 330 360 352 319 347 9 57 61 37 22 6 351 337 323 324 326 324 24 22 282 267 288 306 311 307 228 269 22 155 200 133 91 57 74 86 6 299 305 320 297 291 295 289 290 23 19 351 345 343 347 352 348 342 338 333 329 329 331 330 329
67 51 22 43 63 73 84 80 33 42 68 71 84 71 58 68 67 50 33 28 31 2 342 62 54 9 42 16 332 354 8 3 14 20 61 87 69 10 356 2 355 340 332 328 330 355 17 267 286 301 295 294 312 344 330 15 17 348 147 125 84 123 141 197 255 298 309 296 302 304 289 291 4 7 344 341 344 348 349 345 341 336 330 328 330 331 330 328
68 54 44 41 48 79 79 82 78 77 85 122 105 71 63 70 49 45 56 26 19 352 327 29 64 7 22 18 327 332 8 19 39 45 65 79 88 68 16 38 42 20 19 92 301 332 347 276 323 334 328 332 342 341 329 321 338 334 316 104 116 130 137 244 259 294 294 296 314 309 291 293 332 350 339 340 347 349 344 341 340 334 328 327 330 331 330 329
66 55 50 51 69 88 80 97 124 116 124 119 95 44 65 72 47 53 69 34 27 22 338 352 11 330 339 49 287 293 67 91 22 27 83 81 116 186 45 54 70 62 48 17 315 318 301 282 349 23 347 330 325 316 316 316 317 317 301 298 124 119 88 39 306 306 302 303 308 295 283 298 320 336 336 341 351 346 340 340 338 333 329 329 330 329 329 329
62 56 46 50 67 77 78 93 109 112 135 129 92 31 27 62 65 60 60 36 27 25 356 343 331 294 312 348 293 294 105 138 93 37 45 68 119 184 156 82 81 70 33 355 344 330 255 289 30 75 247 271 283 284 289 297 300 300 300 304 360 117 99 77 342 305 308 307 301 291 295 305 318 331 338 347 349 342 339 339 336 333 331 330 327 326 326 327
68 56 26 48 64 70 70 73 76 88 130 119 93 57 41 73 102 39 39 45 13 13 13 360 16 15 360 354 326 327 358 155 108 78 3 321 117 147 148 131 66 15 53 360 355 356 277 288 42 33 283 264 272 280 280 285 291 296 301 309 1 110 116 98 311 304 315 316 304 310 317 314 318 331 344 351 346 339 339 338 334 332 330 328 326 325 326 328
82 96 89 94 84 49 50 56 57 67 73 74 105 111 64 75 66 19 17 353 350 18 30 45 47 45 27 360 318 320 348 346 95 110 222 265 142 178 182 178 209 9 121 3 4 23 220 263 211 311 290 288 286 282 284 293 297 298 302 317 8 50 25 339 308 305 320 315 303 312 319 316 317 332 348 350 344 339 337 334 331 330 327 326 327 327 328 330
109 113 90 88 97 94 100 98 83 79 71 77 104 67 47 66 58 52 357 338 355 44 25 39 42 29 19 358 339 345 6 355 281 213 214 213 260 226 189 186 180 80 56 8 346 4 140 278 271 237 284 294 290 287 299 310 308 305 326 28 28 17 359 335 316 311 313 304 301 309 313 311 320 338 344 344 341 337 333 332 331 330 327 325 327 330 331 332
118 122 112 103 95 82 84 77 43 97 72 59 74 40 31 62 61 94 31 15 29 29 16 20 15 14 9 345 352 58 34 334 270 261 217 175 255 247 105 65 146 66 52 35 330 331 38 329 303 282 292 294 294 308 318 316 310 306 27 47 17 355 353 337 318 321 322 312 309 311 309 309 327 340 338 340 339 334 332 333 332 331 329 327 328 331 333 332
115 122 121 112 92 35 46 25 323 359 40 23 44 31 25 56 52 72 58 48 60 43 15 3 353 340 223 316 5 81 44 351 141 103 83 110 189 191 110 42 347 348 27 40 332 323 356 316 300 322 311 290 308 331 323 315 315 332 56 21 4 348 344 333 320 326 326 318 316 318 315 312 331 337 336 336 335 333 333 334 331 329 328 329 331 333 332 331
117 122 120 111 94 19 3 334 331 49 65 21 44 60 68 80 67 47 77 83 67 49 25 6 353 328 217 158 360 334 306 241 167 120 89 103 102 100 98 86 75 65 28 14 225 324 356 320 306 345 318 291 315 328 317 311 314 11 48 16 8 346 333 326 321 323 321 318 321 323 323 328 334 336 333 331 333 335 333 331 329 327 327 330 333 333 330 329